Back to catalog

OPS 7350

AliveMilitaryGEO
NORAD 12339·PAYLOAD·🇺🇸 United States

Launched Mar 16, 1981 from Cape Canaveral Space Force Station

Loading…

TLE

FreshSource: Space-Track

Epoch: Sep 14, 2026, 14:19 UTC

1 12339U 81025A   26257.59711443 -.00000142  00000-0  00000-0 0  9998
2 12339   7.9107 304.4626 0020115 292.4224  82.6086  0.98827630 26723

Track OPS 7350 in real time with AllMySat

Download on the App Store